Regional Weather Roundup
Issued by NWS Albany, NY

Home | Current Version | Previous Version | Text Only | Print | Product List | Glossary On
Versions: 1 2 3 4 5 6 7 8 9 10 11 12 13 14 15 16 17 18 19 20 21 22 23 24 25 26 27 28 29 30 31 32 33 34 35 36 37 38 39 40 41 42 43 44 45 46 47 48 49 50
731
ASUS41 KALY 241810
RWRALY

NEW YORK STATE HOURLY WEATHER ROUNDUP
NATIONAL WEATHER SERVICE ALBANY NY
200 PM EDT SAT JUN 24 2017

NOTE: "FAIR" INDICATES FEW OR NO CLOUDS BELOW 12,000 FEET WITH NO
SIGNIFICANT WEATHER AND/OR NO OBSTRUCTIONS TO VISIBILITY.

NYZ032-033-038>043-046>054-057>066-NYZ062>081-082-084-241900-
EAST


CITY           SKY/WX    TMP DP  RH WIND       PRES   REMARKS
ALBANY         MOSUNNY   80  58  46 NW16G24   29.71R
GLENS FALLS    MOSUNNY   82  53  36 NW20G25   29.66R
POUGHKEEPSIE   SUNNY     83  54  36 NW13      29.71R
NEWBURGH       MOSUNNY   82  57  42 NW23G29   29.76R
MONTGOMERY     SUNNY     83  54  36 NW10G23   29.74R
ISLIP          MOSUNNY   86  60  41 NW16G28   29.70R
NEW YORK CITY  MOSUNNY   85  56  37 W22G30    29.72R
CENTRAL PARK   SUNNY     83  54  36 MISG      29.76R
$$

NYZ005>009-017-018-044>046-055-056-241900-
CENTRAL


CITY           SKY/WX    TMP DP  RH WIND       PRES   REMARKS
FULTON         SUNNY     77  55  46 W15       29.76S
SYRACUSE       MOSUNNY   78  56  46 NW10      29.75S
ROME           MOSUNNY   76  56  49 W10G25    29.75S
ELMIRA         PTSUNNY   77  55  47 NW7       29.79S
BINGHAMTON     MOSUNNY   73  52  46 NW9       29.82S
MONTICELLO     SUNNY     77  52  41 NW14G26   29.81R
$$

NYZ026>034-041>043-087-241900-
NORTH


CITY           SKY/WX    TMP DP  RH WIND       PRES   REMARKS
WATERTOWN      SUNNY     73  59  61 SW14G21   29.73R
FORT DRUM      NOT AVBL
OGDENSBURG     FAIR      80  57  46 W7        29.65S
MASSENA        PTSUNNY   75  59  57 SW9G17    29.64R
SARANAC LAKE   MOSUNNY   73  53  49 W13G22    29.70R
PLATTSBURGH    MOSUNNY   83  54  36 NW7       29.63R
$$

NYZ001>004-010>016-019>021-085-241900-
WEST


CITY           SKY/WX    TMP DP  RH WIND       PRES   REMARKS
NIAGARA FALLS  MOSUNNY   78  54  43 W13       29.79R
BUFFALO        MOSUNNY   73  61  65 SW18G25   29.80R
DUNKIRK        SUNNY     72  59  63 W16G28    29.84R
JAMESTOWN      MOSUNNY   72  54  53 W17G23    29.87S
WELLSVILLE     MOSUNNY   75  54  47 W16G28    29.86S
ROCHESTER      PTSUNNY   75  54  47 W13       29.77S
PENN YAN       CLOUDY    75  53  46 W9        29.79S
$$

             KEY
       WCI = WIND CHILL INDEX
       VSB = VISIBILITY
       HX  = HEAT INDEX
$$




USA.gov is the U.S. government's official web portal to all federal, state and local government web resources and services.